| time (UTC) | temp F | wind direction | speed MPH | gust MPH | rain 1hr in | rain 24hr in | rain mn in | humidity % | barometer mb |
| 20260902101203 | 75 | 339 | 1.0 | 1.0 | 0.00 | 0.00 | 0.00 | 92 | 1018.0 |
| 20260902100702 | 75 | 85 | 1.0 | 0.0 | 0.00 | 0.00 | 0.00 | 92 | 1017.9 |
| 20260902100156 | 74 | 293 | 1.0 | 1.0 | 0.00 | 0.00 | 0.00 | 93 | 1018.0 |
| 20260902095656 | 74 | 178 | 1.0 | 2.0 | 0.00 | 0.00 | 0.00 | 94 | 1018.0 |
| 20260902095150 | 74 | 182 | 2.0 | 2.0 | 0.00 | 0.00 | 0.00 | 96 | 1017.9 |
| 20260902094645 | 73 | 125 | 0.0 | 1.0 | 0.00 | 0.00 | 0.00 | 96 | 1018.0 |
| 20260902094142 | 73 | 104 | 0.0 | 0.0 | 0.00 | 0.00 | 0.00 | 97 | 1018.1 |
| 20260902093641 | 73 | 133 | 1.0 | 0.0 | 0.00 | 0.00 | 0.00 | 97 | 1018.3 |
| 20260902093136 | 73 | 111 | 0.0 | 0.0 | 0.00 | 0.00 | 0.00 | 97 | 1018.0 |
| 20260902092631 | 72 | 192 | 2.0 | 2.0 | 0.00 | 0.00 | 0.00 | 97 | 1018.3 |
| 20260902092126 | 72 | 127 | 0.0 | 0.0 | 0.00 | 0.00 | 0.00 | 97 | 1018.3 |
| 20260902091620 | 72 | 257 | 1.0 | 1.0 | 0.00 | 0.00 | 0.00 | 97 | 1018.2 |
| 20260902091117 | 72 | 102 | 0.0 | 0.0 | 0.00 | 0.00 | 0.00 | 97 | 1018.1 |
| 20260902090613 | 72 | 102 | 0.0 | 0.0 | 0.00 | 0.00 | 0.00 | 97 | 1018.2 |
| 20260902090111 | 72 | 103 | 0.0 | 0.0 | 0.00 | 0.00 | 0.00 | 97 | 1018.4 |
| 20260902085606 | 72 | 102 | 0.0 | 0.0 | 0.00 | 0.00 | 0.00 | 97 | 1018.5 |
| 20260902085101 | 72 | 102 | 0.0 | 0.0 | 0.00 | 0.00 | 0.00 | 97 | 1018.4 |
| 20260902084557 | 72 | 102 | 0.0 | 0.0 | 0.00 | 0.00 | 0.00 | 97 | 1018.4 |
| 20260902084052 | 72 | 102 | 0.0 | 0.0 | 0.00 | 0.00 | 0.00 | 97 | 1018.3 |
| 20260902083547 | 72 | 102 | 0.0 | 0.0 | 0.00 | 0.00 | 0.00 | 97 | 1018.3 |
| 20260902083042 | 72 | 102 | 0.0 | 0.0 | 0.00 | 0.00 | 0.00 | 97 | 1018.4 |
| 20260902082538 | 72 | 102 | 0.0 | 0.0 | 0.00 | 0.00 | 0.00 | 97 | 1018.1 |
| 20260902082034 | 72 | 119 | 0.0 | 0.0 | 0.00 | 0.00 | 0.00 | 97 | 1018.3 |
| 20260902081531 | 72 | 140 | 0.0 | 0.0 | 0.00 | 0.00 | 0.00 | 97 | 1018.0 |
| 20260902081030 | 72 | 114 | 0.0 | 0.0 | 0.00 | 0.00 | 0.00 | 97 | 1018.0 |
| 20260902080526 | 71 | 152 | 1.0 | 1.0 | 0.00 | 0.00 | 0.00 | 97 | 1018.3 |
| 20260902080022 | 71 | 174 | 0.0 | 0.0 | 0.00 | 0.00 | 0.00 | 96 | 1018.3 |
| 20260902075521 | 71 | 174 | 0.0 | 0.0 | 0.00 | 0.00 | 0.00 | 96 | 1018.1 |
| 20260902075018 | 71 | 174 | 0.0 | 0.0 | 0.00 | 0.00 | 0.00 | 96 | 1018.0 |
| 20260902074513 | 71 | 174 | 0.0 | 0.0 | 0.00 | 0.00 | 0.00 | 96 | 1017.9 |
| 20260902074013 | 71 | 174 | 0.0 | 0.0 | 0.00 | 0.00 | 0.00 | 96 | 1018.1 |
| 20260902073503 | 71 | 174 | 0.0 | 0.0 | 0.00 | 0.00 | 0.00 | 96 | 1017.9 |
| 20260902073000 | 71 | 174 | 0.0 | 0.0 | 0.00 | 0.00 | 0.00 | 96 | 1018.2 |
| 20260902072455 | 71 | 174 | 0.0 | 0.0 | 0.00 | 0.00 | 0.00 | 96 | 1018.2 |
| 20260902071951 | 70 | 174 | 0.0 | 0.0 | 0.00 | 0.00 | 0.00 | 96 | 1018.2 |
| 20260902071450 | 70 | 174 | 0.0 | 0.0 | 0.00 | 0.00 | 0.00 | 95 | 1018.2 |
| 20260902070947 | 70 | 174 | 0.0 | 0.0 | 0.00 | 0.00 | 0.00 | 95 | 1018.1 |
| 20260902070442 | 71 | 174 | 0.0 | 0.0 | 0.00 | 0.00 | 0.00 | 95 | 1018.0 |
| 20260902065941 | 71 | 174 | 0.0 | 0.0 | 0.00 | 0.00 | 0.00 | 95 | 1018.0 |
| 20260902065437 | 71 | 174 | 0.0 | 0.0 | 0.00 | 0.00 | 0.00 | 95 | 1018.2 |
| 20260902064931 | 71 | 174 | 0.0 | 0.0 | 0.00 | 0.00 | 0.00 | 95 | 1018.2 |
| 20260902064427 | 71 | 174 | 0.0 | 0.0 | 0.00 | 0.00 | 0.00 | 95 | 1018.2 |
| 20260902063923 | 71 | 174 | 0.0 | 0.0 | 0.00 | 0.00 | 0.00 | 95 | 1018.1 |
| 20260902063422 | 71 | 174 | 0.0 | 0.0 | 0.00 | 0.00 | 0.00 | 95 | 1018.3 |
| 20260902062918 | 71 | 174 | 0.0 | 0.0 | 0.00 | 0.00 | 0.00 | 95 | 1018.3 |
| 20260902062416 | 71 | 175 | 0.0 | 0.0 | 0.00 | 0.00 | 0.00 | 95 | 1018.5 |
| 20260902061911 | 71 | 175 | 0.0 | 0.0 | 0.00 | 0.00 | 0.00 | 94 | 1018.4 |
| 20260902061406 | 71 | 175 | 0.0 | 0.0 | 0.00 | 0.00 | 0.00 | 94 | 1018.6 |
| 20260902060903 | 71 | 175 | 0.0 | 0.0 | 0.00 | 0.00 | 0.00 | 94 | 1018.6 |
| 20260902060358 | 71 | 175 | 1.0 | 1.0 | 0.00 | 0.00 | 0.00 | 94 | 1018.4 |
| 20260902055854 | 71 | 175 | 0.0 | 0.0 | 0.00 | 0.00 | 0.00 | 94 | 1018.3 |
| 20260902055350 | 71 | 173 | 1.0 | 0.0 | 0.00 | 0.00 | 0.00 | 94 | 1018.5 |
| 20260902054845 | 71 | 174 | 0.0 | 0.0 | 0.00 | 0.00 | 0.00 | 94 | 1018.6 |
| 20260902054341 | 72 | 160 | 0.0 | 0.0 | 0.00 | 0.00 | 0.00 | 93 | 1018.3 |
| 20260902053836 | 72 | 160 | 0.0 | 0.0 | 0.00 | 0.00 | 0.00 | 93 | 1018.3 |
| 20260902053331 | 72 | 160 | 0.0 | 0.0 | 0.00 | 0.00 | 0.00 | 93 | 1018.4 |
| 20260902052830 | 72 | 160 | 0.0 | 0.0 | 0.00 | 0.00 | 0.00 | 93 | 1018.3 |
| 20260902052326 | 72 | 160 | 0.0 | 0.0 | 0.00 | 0.00 | 0.00 | 93 | 1018.3 |
| 20260902051820 | 72 | 161 | 1.0 | 1.0 | 0.00 | 0.00 | 0.00 | 93 | 1018.4 |
| 20260902051314 | 72 | 157 | 0.0 | 0.0 | 0.00 | 0.00 | 0.00 | 92 | 1018.5 |
| 20260902050809 | 72 | 145 | 0.0 | 0.0 | 0.00 | 0.00 | 0.00 | 92 | 1018.5 |
| 20260902050308 | 72 | 145 | 0.0 | 0.0 | 0.00 | 0.00 | 0.00 | 92 | 1018.4 |
| 20260902045803 | 73 | 145 | 0.0 | 0.0 | 0.00 | 0.00 | 0.00 | 91 | 1018.1 |
| 20260902045259 | 73 | 145 | 0.0 | 0.0 | 0.00 | 0.00 | 0.00 | 91 | 1018.1 |
| 20260902044755 | 73 | 147 | 0.0 | 0.0 | 0.00 | 0.00 | 0.00 | 91 | 1018.4 |
| 20260902044250 | 73 | 140 | 0.0 | 0.0 | 0.00 | 0.00 | 0.00 | 90 | 1018.3 |
| 20260902043745 | 73 | 140 | 0.0 | 0.0 | 0.00 | 0.00 | 0.00 | 90 | 1018.2 |
| 20260902043241 | 73 | 140 | 0.0 | 0.0 | 0.00 | 0.00 | 0.00 | 89 | 1018.1 |
| 20260902042739 | 74 | 140 | 0.0 | 0.0 | 0.00 | 0.00 | 0.00 | 89 | 1017.9 |
| 20260902042234 | 74 | 139 | 0.0 | 0.0 | 0.00 | 0.00 | 0.00 | 88 | 1018.0 |
| 20260902041730 | 74 | 140 | 0.0 | 0.0 | 0.00 | 0.00 | 0.00 | 87 | 1018.0 |
| 20260902041224 | 75 | 133 | 0.0 | 0.0 | 0.00 | 0.00 | 0.00 | 86 | 1017.9 |
| 20260902040724 | 75 | 133 | 0.0 | 0.0 | 0.00 | 0.00 | 0.00 | 85 | 1018.0 |
| 20260902040219 | 76 | 133 | 0.0 | 0.0 | 0.00 | 0.00 | 0.00 | 84 | 1017.6 |
| 20260902035718 | 76 | 134 | 0.0 | 0.0 | 0.00 | 0.00 | 0.00 | 83 | 1017.9 |
| 20260902035214 | 77 | 151 | 1.0 | 1.0 | 0.00 | 0.00 | 0.00 | 81 | 1017.9 |
| 20260902034712 | 77 | 163 | 0.0 | 0.0 | 0.00 | 0.00 | 0.00 | 80 | 1018.1 |
| 20260902034212 | 78 | 22 | 1.0 | 1.0 | 0.00 | 0.00 | 0.00 | 79 | 1018.2 |
| 20260902033711 | 78 | 220 | 0.0 | 1.0 | 0.00 | 0.00 | 0.00 | 79 | 1018.2 |
| 20260902033206 | 78 | 254 | 0.0 | 1.0 | 0.00 | 0.00 | 0.00 | 79 | 1018.1 |
| 20260902032705 | 78 | 343 | 2.0 | 1.0 | 0.00 | 0.00 | 0.00 | 79 | 1018.1 |
| 20260902032200 | 78 | 328 | 1.0 | 1.0 | 0.00 | 0.00 | 0.00 | 79 | 1017.9 |
| 20260902031654 | 78 | 221 | 3.0 | 3.0 | 0.00 | 0.00 | 0.00 | 79 | 1018.0 |
| 20260902031150 | 78 | 333 | 1.0 | 1.0 | 0.00 | 0.00 | 0.00 | 82 | 1017.9 |
| 20260902030645 | 77 | 276 | 1.0 | 1.0 | 0.00 | 0.00 | 0.00 | 84 | 1018.0 |
| 20260902030145 | 76 | 55 | 0.0 | 0.0 | 0.00 | 0.00 | 0.00 | 88 | 1018.0 |
| 20260902025644 | 75 | 356 | 1.0 | 1.0 | 0.00 | 0.00 | 0.00 | 90 | 1017.7 |
| 20260902025140 | 74 | 282 | 1.0 | 1.0 | 0.00 | 0.00 | 0.00 | 94 | 1017.9 |
| 20260902024635 | 72 | 233 | 2.0 | 2.0 | 0.00 | 0.00 | 0.00 | 94 | 1018.1 |
| 20260902024130 | 72 | 131 | 0.0 | 0.0 | 0.00 | 0.00 | 0.00 | 93 | 1017.8 |
| 20260902023626 | 72 | 131 | 0.0 | 0.0 | 0.00 | 0.00 | 0.00 | 92 | 1017.8 |
| 20260902023120 | 72 | 131 | 0.0 | 0.0 | 0.00 | 0.00 | 0.00 | 92 | 1017.8 |
| 20260902022620 | 72 | 131 | 0.0 | 0.0 | 0.00 | 0.00 | 0.00 | 91 | 1017.6 |
| 20260902022116 | 72 | 131 | 0.0 | 0.0 | 0.00 | 0.00 | 0.00 | 91 | 1017.6 |
| 20260902021611 | 72 | 131 | 0.0 | 0.0 | 0.00 | 0.00 | 0.00 | 90 | 1017.8 |
| 20260902021106 | 73 | 131 | 0.0 | 0.0 | 0.00 | 0.00 | 0.00 | 90 | 1017.8 |
| 20260902020602 | 73 | 131 | 0.0 | 0.0 | 0.00 | 0.00 | 0.00 | 89 | 1017.6 |
| 20260902020057 | 73 | 131 | 1.0 | 1.0 | 0.00 | 0.00 | 0.00 | 89 | 1017.7 |
| 20260902015553 | 73 | 131 | 0.0 | 0.0 | 0.00 | 0.00 | 0.00 | 88 | 1017.7 |
| 20260902015049 | 73 | 131 | 0.0 | 0.0 | 0.00 | 0.00 | 0.00 | 88 | 1017.7 |
| 20260902014545 | 73 | 131 | 0.0 | 0.0 | 0.00 | 0.00 | 0.00 | 87 | 1017.7 |
| 20260902014039 | 74 | 131 | 0.0 | 0.0 | 0.00 | 0.00 | 0.00 | 87 | 1017.7 |
| 20260902013539 | 74 | 131 | 0.0 | 0.0 | 0.00 | 0.00 | 0.00 | 86 | 1017.7 |
| 20260902013035 | 74 | 130 | 0.0 | 0.0 | 0.00 | 0.00 | 0.00 | 86 | 1017.5 |
| 20260902012530 | 74 | 124 | 1.0 | 1.0 | 0.00 | 0.00 | 0.00 | 86 | 1017.7 |
| 20260902012025 | 74 | 88 | 0.0 | 0.0 | 0.00 | 0.00 | 0.00 | 86 | 1017.5 |
| 20260902011520 | 74 | 47 | 1.0 | 1.0 | 0.00 | 0.00 | 0.00 | 85 | 1017.3 |
| 20260902011015 | 75 | 118 | 0.0 | 0.0 | 0.00 | 0.00 | 0.00 | 84 | 1017.2 |
| 20260902010514 | 75 | 119 | 0.0 | 0.0 | 0.00 | 0.00 | 0.00 | 83 | 1017.4 |
| 20260902010010 | 75 | 102 | 0.0 | 0.0 | 0.00 | 0.00 | 0.00 | 83 | 1017.3 |
| 20260902005508 | 76 | 102 | 0.0 | 0.0 | 0.00 | 0.00 | 0.00 | 81 | 1017.3 |
| 20260902005005 | 76 | 102 | 0.0 | 0.0 | 0.00 | 0.00 | 0.00 | 80 | 1017.4 |
| 20260902004504 | 77 | 102 | 0.0 | 0.0 | 0.00 | 0.00 | 0.00 | 78 | 1017.2 |
| 20260902003959 | 78 | 102 | 0.0 | 0.0 | 0.00 | 0.00 | 0.00 | 76 | 1017.2 |
| 20260902003454 | 78 | 94 | 0.0 | 0.0 | 0.00 | 0.00 | 0.00 | 75 | 1017.1 |
| 20260902002949 | 79 | 63 | 0.0 | 0.0 | 0.00 | 0.00 | 0.00 | 73 | 1017.3 |
| 20260902002445 | 79 | 30 | 0.0 | 0.0 | 0.00 | 0.00 | 0.00 | 72 | 1017.1 |
| 20260902001944 | 80 | 62 | 0.0 | 0.0 | 0.00 | 0.00 | 0.00 | 71 | 1017.2 |
| 20260902001439 | 80 | 6 | 1.0 | 1.0 | 0.00 | 0.00 | 0.00 | 71 | 1017.0 |
| 20260902000934 | 81 | 208 | 1.0 | 2.0 | 0.00 | 0.00 | 0.00 | 70 | 1017.0 |
| 20260902000429 | 81 | 85 | 1.0 | 1.0 | 0.00 | 0.00 | 0.00 | 69 | 1016.8 |
| 20260901235924 | 82 | 321 | 1.0 | 1.0 | 0.00 | 0.00 | 0.00 | 69 | 1016.8 |
| 20260901235419 | 82 | 298 | 3.0 | 3.0 | 0.00 | 0.00 | 0.00 | 69 | 1017.0 |
| 20260901234914 | 82 | 203 | 2.0 | 2.0 | 0.00 | 0.00 | 0.00 | 68 | 1017.3 |
| 20260901234408 | 82 | 196 | 2.0 | 2.0 | 0.00 | 0.00 | 0.00 | 68 | 1017.5 |
| 20260901233903 | 82 | 40 | 1.0 | 1.0 | 0.00 | 0.00 | 0.00 | 67 | 1017.4 |
| 20260901233358 | 83 | 24 | 0.0 | 0.0 | 0.00 | 0.00 | 0.00 | 68 | 1017.3 |
| 20260901232855 | 83 | 240 | 2.0 | 3.0 | 0.00 | 0.00 | 0.00 | 68 | 1017.4 |
| 20260901232348 | 83 | 315 | 1.0 | 1.0 | 0.00 | 0.00 | 0.00 | 68 | 1017.6 |
| 20260901231845 | 83 | 332 | 7.0 | 9.0 | 0.00 | 0.00 | 0.00 | 67 | 1017.7 |
| 20260901231341 | 83 | 93 | 0.0 | 0.0 | 0.00 | 0.00 | 0.00 | 69 | 1017.6 |
| 20260901230837 | 84 | 82 | 1.0 | 1.0 | 0.00 | 0.00 | 0.00 | 69 | 1017.8 |
| 20260901230336 | 84 | 126 | 1.0 | 1.0 | 0.00 | 0.00 | 0.00 | 68 | 1017.9 |
| 20260901225832 | 84 | 165 | 1.0 | 1.0 | 0.00 | 0.00 | 0.00 | 67 | 1017.8 |
| 20260901225331 | 84 | 318 | 2.0 | 2.0 | 0.00 | 0.00 | 0.00 | 66 | 1017.9 |
| 20260901224826 | 84 | 284 | 0.0 | 1.0 | 0.00 | 0.00 | 0.00 | 66 | 1017.8 |
| 20260901224323 | 84 | 332 | 2.0 | 2.0 | 0.00 | 0.00 | 0.00 | 65 | 1017.9 |
| 20260901223819 | 84 | 338 | 3.0 | 6.0 | 0.00 | 0.00 | 0.00 | 64 | 1017.7 |
| 20260901223314 | 84 | 344 | 3.0 | 3.0 | 0.00 | 0.00 | 0.00 | 63 | 1018.1 |
| 20260901222810 | 85 | 323 | 9.0 | 13.0 | 0.00 | 0.00 | 0.00 | 62 | 1018.1 |
| 20260901222306 | 85 | 320 | 3.0 | 7.0 | 0.00 | 0.00 | 0.00 | 62 | 1018.1 |
| 20260901221802 | 86 | 331 | 1.0 | 1.0 | 0.00 | 0.00 | 0.00 | 63 | 1017.9 |
| 20260901221256 | 87 | 257 | 1.0 | 2.0 | 0.00 | 0.00 | 0.00 | 60 | 1018.1 |
| 20260901220750 | 87 | 305 | 4.0 | 5.0 | 0.00 | 0.00 | 0.00 | 57 | 1018.2 |
| 20260901220244 | 87 | 359 | 1.0 | 1.0 | 0.00 | 0.00 | 0.00 | 60 | 1017.8 |
| 20260901215743 | 87 | 332 | 2.0 | 3.0 | 0.00 | 0.00 | 0.00 | 59 | 1017.9 |
| 20260901215237 | 87 | 267 | 3.0 | 3.0 | 0.00 | 0.00 | 0.00 | 59 | 1018.1 |
| 20260901214736 | 87 | 355 | 3.0 | 6.0 | 0.00 | 0.00 | 0.00 | 59 | 1017.6 |
| 20260901214229 | 89 | 271 | 2.0 | 2.0 | 0.00 | 0.00 | 0.00 | 59 | 1017.9 |
| 20260901213729 | 88 | 215 | 4.0 | 5.0 | 0.00 | 0.00 | 0.00 | 59 | 1017.7 |
| 20260901213229 | 88 | 336 | 2.0 | 3.0 | 0.00 | 0.00 | 0.00 | 60 | 1017.9 |
| 20260901212729 | 89 | 10 | 2.0 | 2.0 | 0.00 | 0.00 | 0.00 | 58 | 1017.7 |
| 20260901212225 | 89 | 338 | 3.0 | 5.0 | 0.00 | 0.00 | 0.00 | 58 | 1017.8 |
| 20260901211720 | 89 | 258 | 2.0 | 2.0 | 0.00 | 0.00 | 0.00 | 58 | 1017.7 |
| 20260901211216 | 88 | 258 | 4.0 | 6.0 | 0.00 | 0.00 | 0.00 | 60 | 1017.8 |
| 20260901210712 | 89 | 282 | 3.0 | 3.0 | 0.00 | 0.00 | 0.00 | 59 | 1017.5 |
| 20260901210207 | 90 | 170 | 2.0 | 3.0 | 0.00 | 0.00 | 0.00 | 60 | 1017.8 |
| 20260901205703 | 89 | 23 | 1.0 | 1.0 | 0.00 | 0.00 | 0.00 | 60 | 1017.8 |
| 20260901205158 | 89 | 199 | 5.0 | 7.0 | 0.00 | 0.00 | 0.00 | 64 | 1017.7 |
| 20260901204653 | 89 | 164 | 1.0 | 2.0 | 0.00 | 0.00 | 0.00 | 65 | 1017.7 |
| 20260901204149 | 88 | 0 | 3.0 | 5.0 | 0.00 | 0.00 | 0.00 | 65 | 1018.0 |
| 20260901203649 | 88 | 343 | 4.0 | 6.0 | 0.00 | 0.00 | 0.00 | 66 | 1017.7 |
| 20260901203144 | 88 | 188 | 4.0 | 5.0 | 0.00 | 0.00 | 0.00 | 64 | 1017.8 |
| 20260901202643 | 88 | 172 | 3.0 | 3.0 | 0.00 | 0.00 | 0.00 | 63 | 1017.8 |
| 20260901202139 | 89 | 343 | 3.0 | 3.0 | 0.00 | 0.00 | 0.00 | 62 | 1017.8 |
| 20260901201635 | 90 | 294 | 2.0 | 3.0 | 0.00 | 0.00 | 0.00 | 63 | 1018.0 |
| 20260901201133 | 90 | 290 | 1.0 | 2.0 | 0.00 | 0.00 | 0.00 | 61 | 1017.9 |
| 20260901200628 | 89 | 358 | 1.0 | 2.0 | 0.00 | 0.00 | 0.00 | 61 | 1018.1 |
| 20260901200123 | 88 | 355 | 3.0 | 3.0 | 0.00 | 0.00 | 0.00 | 65 | 1017.8 |
| 20260901195620 | 89 | 297 | 3.0 | 5.0 | 0.00 | 0.00 | 0.00 | 61 | 1018.0 |
| 20260901195115 | 89 | 239 | 3.0 | 2.0 | 0.00 | 0.00 | 0.00 | 59 | 1017.7 |
| 20260901194610 | 90 | 184 | 5.0 | 8.0 | 0.00 | 0.00 | 0.00 | 59 | 1017.7 |
| 20260901194105 | 90 | 32 | 3.0 | 3.0 | 0.00 | 0.00 | 0.00 | 57 | 1017.8 |
| 20260901193601 | 90 | 132 | 3.0 | 2.0 | 0.00 | 0.00 | 0.00 | 58 | 1017.9 |
| 20260901193055 | 90 | 43 | 1.0 | 2.0 | 0.00 | 0.00 | 0.00 | 59 | 1017.6 |
| 20260901192550 | 90 | 191 | 2.0 | 3.0 | 0.00 | 0.00 | 0.00 | 59 | 1017.6 |
| 20260901192046 | 90 | 59 | 3.0 | 5.0 | 0.00 | 0.00 | 0.00 | 57 | 1017.5 |
| 20260901191542 | 90 | 350 | 3.0 | 3.0 | 0.00 | 0.00 | 0.00 | 58 | 1017.5 |
| 20260901191038 | 90 | 351 | 2.0 | 2.0 | 0.00 | 0.00 | 0.00 | 59 | 1017.6 |
| 20260901190532 | 90 | 312 | 2.0 | 2.0 | 0.00 | 0.00 | 0.00 | 59 | 1017.6 |
| 20260901190031 | 90 | 317 | 2.0 | 2.0 | 0.00 | 0.00 | 0.00 | 58 | 1017.6 |
| 20260901185525 | 90 | 224 | 0.0 | 0.0 | 0.00 | 0.00 | 0.00 | 59 | 1017.6 |
| 20260901185024 | 90 | 338 | 4.0 | 6.0 | 0.00 | 0.00 | 0.00 | 60 | 1017.6 |
| 20260901184520 | 90 | 167 | 1.0 | 1.0 | 0.00 | 0.00 | 0.00 | 58 | 1017.5 |
| 20260901184015 | 89 | 238 | 2.0 | 2.0 | 0.00 | 0.00 | 0.00 | 58 | 1017.4 |
| 20260901183509 | 89 | 352 | 1.0 | 1.0 | 0.00 | 0.00 | 0.00 | 59 | 1017.4 |
| 20260901183005 | 89 | 333 | 2.0 | 3.0 | 0.00 | 0.00 | 0.00 | 62 | 1017.7 |
| 20260901182500 | 89 | 236 | 1.0 | 1.0 | 0.00 | 0.00 | 0.00 | 60 | 1018.0 |
| 20260901181954 | 89 | 91 | 2.0 | 2.0 | 0.00 | 0.00 | 0.00 | 63 | 1017.7 |
| 20260901181449 | 89 | 27 | 1.0 | 1.0 | 0.00 | 0.00 | 0.00 | 62 | 1017.7 |
| 20260901180948 | 88 | 56 | 2.0 | 2.0 | 0.00 | 0.00 | 0.00 | 62 | 1018.0 |
| 20260901180447 | 88 | 200 | 2.0 | 2.0 | 0.00 | 0.00 | 0.00 | 63 | 1017.9 |
| 20260901175945 | 88 | 319 | 3.0 | 5.0 | 0.00 | 0.00 | 0.00 | 63 | 1018.0 |
| 20260901175441 | 88 | 174 | 2.0 | 3.0 | 0.00 | 0.00 | 0.00 | 62 | 1017.9 |
| 20260901174936 | 88 | 72 | 3.0 | 5.0 | 0.00 | 0.00 | 0.00 | 61 | 1017.8 |
| 20260901174431 | 88 | 178 | 4.0 | 6.0 | 0.00 | 0.00 | 0.00 | 61 | 1018.1 |
| 20260901173927 | 88 | 288 | 5.0 | 6.0 | 0.00 | 0.00 | 0.00 | 65 | 1017.9 |
| 20260901173422 | 87 | 42 | 3.0 | 3.0 | 0.00 | 0.00 | 0.00 | 63 | 1018.0 |
| 20260901172918 | 87 | 319 | 3.0 | 3.0 | 0.00 | 0.00 | 0.00 | 64 | 1018.2 |
| 20260901172413 | 88 | 261 | 3.0 | 6.0 | 0.00 | 0.00 | 0.00 | 64 | 1018.0 |
| 20260901171911 | 88 | 264 | 3.0 | 5.0 | 0.00 | 0.00 | 0.00 | 66 | 1018.2 |
| 20260901171410 | 87 | 238 | 0.0 | 0.0 | 0.00 | 0.00 | 0.00 | 64 | 1018.2 |
| 20260901170908 | 87 | 333 | 4.0 | 5.0 | 0.00 | 0.00 | 0.00 | 63 | 1018.1 |
| 20260901170358 | 86 | 156 | 1.0 | 2.0 | 0.00 | 0.00 | 0.00 | 64 | 1018.5 |
| 20260901165852 | 87 | 24 | 4.0 | 6.0 | 0.00 | 0.00 | 0.00 | 63 | 1018.2 |
| 20260901165352 | 89 | 323 | 6.0 | 7.0 | 0.00 | 0.00 | 0.00 | 61 | 1018.1 |
| 20260901164848 | 89 | 4 | 4.0 | 5.0 | 0.00 | 0.00 | 0.00 | 62 | 1018.6 |
| 20260901164343 | 89 | 285 | 4.0 | 5.0 | 0.00 | 0.00 | 0.00 | 63 | 1018.5 |
| 20260901163837 | 88 | 342 | 2.0 | 3.0 | 0.00 | 0.00 | 0.00 | 63 | 1018.6 |
| 20260901163333 | 88 | 348 | 3.0 | 3.0 | 0.00 | 0.00 | 0.00 | 64 | 1018.8 |
| 20260901162828 | 89 | 268 | 7.0 | 10.0 | 0.00 | 0.00 | 0.00 | 61 | 1018.6 |
| 20260901162327 | 88 | 319 | 7.0 | 8.0 | 0.00 | 0.00 | 0.00 | 61 | 1018.5 |
| 20260901161826 | 87 | 284 | 3.0 | 3.0 | 0.00 | 0.00 | 0.00 | 64 | 1018.5 |
| 20260901161320 | 87 | 307 | 6.0 | 7.0 | 0.00 | 0.00 | 0.00 | 62 | 1018.7 |
| 20260901160816 | 87 | 340 | 4.0 | 5.0 | 0.00 | 0.00 | 0.00 | 64 | 1018.6 |
| 20260901160313 | 87 | 291 | 5.0 | 5.0 | 0.00 | 0.00 | 0.00 | 63 | 1018.7 |
| 20260901155811 | 87 | 148 | 1.0 | 2.0 | 0.00 | 0.00 | 0.00 | 63 | 1018.5 |
| 20260901155306 | 87 | 359 | 6.0 | 7.0 | 0.00 | 0.00 | 0.00 | 62 | 1018.4 |
| 20260901154803 | 87 | 14 | 2.0 | 3.0 | 0.00 | 0.00 | 0.00 | 63 | 1018.4 |
| 20260901154301 | 86 | 349 | 5.0 | 10.0 | 0.00 | 0.00 | 0.00 | 64 | 1018.2 |
| 20260901153757 | 86 | 9 | 4.0 | 5.0 | 0.00 | 0.00 | 0.00 | 63 | 1018.4 |
| 20260901153256 | 86 | 323 | 5.0 | 7.0 | 0.00 | 0.00 | 0.00 | 66 | 1018.4 |
| 20260901152755 | 86 | 287 | 3.0 | 7.0 | 0.00 | 0.00 | 0.00 | 66 | 1018.5 |
| 20260901152254 | 85 | 240 | 5.0 | 6.0 | 0.00 | 0.00 | 0.00 | 68 | 1018.5 |
| 20260901151750 | 86 | 304 | 5.0 | 6.0 | 0.00 | 0.00 | 0.00 | 66 | 1018.6 |
| 20260901151244 | 86 | 0 | 5.0 | 6.0 | 0.00 | 0.00 | 0.00 | 65 | 1018.4 |
| 20260901150743 | 86 | 352 | 3.0 | 3.0 | 0.00 | 0.00 | 0.00 | 65 | 1018.5 |
| 20260901150241 | 85 | 18 | 3.0 | 3.0 | 0.00 | 0.00 | 0.00 | 68 | 1018.4 |
| 20260901145739 | 83 | 85 | 2.0 | 2.0 | 0.00 | 0.00 | 0.00 | 71 | 1018.5 |
| 20260901145234 | 83 | 7 | 3.0 | 3.0 | 0.00 | 0.00 | 0.00 | 69 | 1018.2 |
| 20260901144730 | 83 | 322 | 3.0 | 3.0 | 0.00 | 0.00 | 0.00 | 69 | 1018.5 |
| 20260901144225 | 84 | 334 | 4.0 | 5.0 | 0.00 | 0.00 | 0.00 | 68 | 1018.5 |
| 20260901143721 | 84 | 337 | 5.0 | 6.0 | 0.00 | 0.00 | 0.00 | 67 | 1018.4 |
| 20260901143217 | 85 | 292 | 4.0 | 5.0 | 0.00 | 0.00 | 0.00 | 67 | 1018.6 |
| 20260901142713 | 85 | 3 | 6.0 | 8.0 | 0.00 | 0.00 | 0.00 | 66 | 1018.6 |
| 20260901142212 | 85 | 159 | 3.0 | 5.0 | 0.00 | 0.00 | 0.00 | 66 | 1018.6 |
| 20260901141707 | 84 | 305 | 6.0 | 8.0 | 0.00 | 0.00 | 0.00 | 67 | 1018.4 |
| 20260901141201 | 84 | 257 | 3.0 | 2.0 | 0.00 | 0.00 | 0.00 | 67 | 1018.3 |
| 20260901140700 | 84 | 316 | 2.0 | 3.0 | 0.00 | 0.00 | 0.00 | 68 | 1018.5 |
| 20260901140158 | 83 | 344 | 5.0 | 6.0 | 0.00 | 0.00 | 0.00 | 69 | 1018.3 |
| 20260901135654 | 83 | 113 | 1.0 | 1.0 | 0.00 | 0.00 | 0.00 | 70 | 1018.3 |
| 20260901135149 | 83 | 4 | 3.0 | 3.0 | 0.00 | 0.00 | 0.00 | 69 | 1018.1 |
| 20260901134644 | 83 | 226 | 3.0 | 3.0 | 0.00 | 0.00 | 0.00 | 69 | 1018.1 |
| 20260901134139 | 83 | 225 | 4.0 | 5.0 | 0.00 | 0.00 | 0.00 | 70 | 1017.9 |
| 20260901133639 | 82 | 4 | 2.0 | 2.0 | 0.00 | 0.00 | 0.00 | 72 | 1018.1 |
| 20260901133137 | 82 | 104 | 1.0 | 1.0 | 0.00 | 0.00 | 0.00 | 73 | 1018.0 |
| 20260901132631 | 81 | 72 | 0.0 | 0.0 | 0.00 | 0.00 | 0.00 | 74 | 1018.4 |
| 20260901132126 | 81 | 320 | 1.0 | 1.0 | 0.00 | 0.00 | 0.00 | 73 | 1018.3 |
| 20260901131625 | 81 | 330 | 3.0 | 3.0 | 0.00 | 0.00 | 0.00 | 74 | 1018.3 |
| 20260901131120 | 80 | 326 | 2.0 | 3.0 | 0.00 | 0.00 | 0.00 | 75 | 1018.4 |
| 20260901130616 | 80 | 266 | 3.0 | 3.0 | 0.00 | 0.00 | 0.00 | 75 | 1018.2 |
| 20260901130114 | 80 | 217 | 3.0 | 3.0 | 0.00 | 0.00 | 0.00 | 76 | 1018.3 |
| 20260901125612 | 79 | 14 | 1.0 | 2.0 | 0.00 | 0.00 | 0.00 | 77 | 1018.6 |
| 20260901125108 | 78 | 327 | 2.0 | 2.0 | 0.00 | 0.00 | 0.00 | 78 | 1018.2 |
| 20260901124607 | 79 | 350 | 2.0 | 2.0 | 0.00 | 0.00 | 0.00 | 77 | 1018.3 |
| 20260901124102 | 79 | 316 | 3.0 | 3.0 | 0.00 | 0.00 | 0.00 | 77 | 1018.3 |
| 20260901123557 | 78 | 334 | 3.0 | 3.0 | 0.00 | 0.00 | 0.00 | 78 | 1018.4 |
| 20260901123056 | 78 | 12 | 1.0 | 2.0 | 0.00 | 0.00 | 0.00 | 78 | 1018.5 |
| 20260901122555 | 78 | 346 | 2.0 | 2.0 | 0.00 | 0.00 | 0.00 | 79 | 1018.5 |
| 20260901122049 | 78 | 294 | 2.0 | 2.0 | 0.00 | 0.00 | 0.00 | 79 | 1018.5 |
| 20260901121550 | 78 | 316 | 0.0 | 0.0 | 0.00 | 0.00 | 0.00 | 79 | 1018.3 |
| 20260901121044 | 77 | 17 | 1.0 | 1.0 | 0.00 | 0.00 | 0.00 | 80 | 1018.4 |
| 20260901120539 | 77 | 21 | 2.0 | 2.0 | 0.00 | 0.00 | 0.00 | 80 | 1018.5 |
| 20260901120035 | 77 | 334 | 1.0 | 1.0 | 0.00 | 0.00 | 0.00 | 80 | 1018.7 |
| 20260901115529 | 77 | 110 | 0.0 | 0.0 | 0.00 | 0.00 | 0.00 | 80 | 1018.3 |
| 20260901115021 | 77 | 151 | 1.0 | 1.0 | 0.00 | 0.00 | 0.00 | 80 | 1018.3 |
| 20260901114517 | 77 | 150 | 0.0 | 0.0 | 0.00 | 0.00 | 0.00 | 81 | 1018.4 |
| 20260901114015 | 77 | 232 | 0.0 | 0.0 | 0.00 | 0.00 | 0.00 | 81 | 1018.5 |
| 20260901113514 | 77 | 18 | 2.0 | 2.0 | 0.00 | 0.00 | 0.00 | 80 | 1018.4 |
| 20260901113010 | 77 | 296 | 0.0 | 1.0 | 0.00 | 0.00 | 0.00 | 81 | 1018.5 |
| 20260901112504 | 77 | 347 | 1.0 | 1.0 | 0.00 | 0.00 | 0.00 | 81 | 1018.4 |
| 20260901111959 | 76 | 11 | 0.0 | 0.0 | 0.00 | 0.00 | 0.00 | 81 | 1018.2 |
| 20260901111458 | 76 | 321 | 1.0 | 2.0 | 0.00 | 0.00 | 0.00 | 81 | 1018.3 |
| 20260901110956 | 76 | 91 | 1.0 | 1.0 | 0.00 | 0.00 | 0.00 | 81 | 1018.2 |
| 20260901110452 | 76 | 339 | 2.0 | 2.0 | 0.00 | 0.00 | 0.00 | 81 | 1018.3 |
| 20260901105948 | 76 | 43 | 1.0 | 1.0 | 0.00 | 0.00 | 0.00 | 81 | 1018.2 |
| 20260901105444 | 76 | 92 | 0.0 | 0.0 | 0.00 | 0.00 | 0.00 | 81 | 1018.0 |
| 20260901104939 | 76 | 250 | 2.0 | 2.0 | 0.00 | 0.00 | 0.00 | 81 | 1017.9 |
| 20260901104435 | 76 | 151 | 1.0 | 1.0 | 0.00 | 0.00 | 0.00 | 81 | 1017.7 |
| 20260901103929 | 76 | 354 | 1.0 | 1.0 | 0.00 | 0.00 | 0.00 | 81 | 1017.9 |
| 20260901103429 | 76 | 286 | 0.0 | 0.0 | 0.00 | 0.00 | 0.00 | 81 | 1017.8 |
| 20260901102924 | 76 | 135 | 2.0 | 3.0 | 0.00 | 0.00 | 0.00 | 81 | 1017.9 |
| 20260901102419 | 76 | 343 | 2.0 | 2.0 | 0.00 | 0.00 | 0.00 | 81 | 1017.9 |
| 20260901101914 | 76 | 190 | 1.0 | 1.0 | 0.00 | 0.00 | 0.00 | 82 | 1017.7 |